This demonstration page uses our WeatherBlox Daily Observations layout. Learn more.

Left ArrowRight Arrow

Hourly Observations for March 8, 2020

Temp ( °F °C ) Dew Point ( °F °C ) Humidity (%) Winds ( mph kmh ) Pressure ( in mb ) Visibility ( mi km ) Precip ( " mm )
12:51 am 00:51 Mostly Cloudy 68 20 34 1.1 28 28 SE 3 6 29.80 1009 10 16 0.00 0.00
1:51 am 01:51 Clear 63 17.2 35 1.7 35 35 NW 6 9 29.83 1010 10 16 0.00 0.00
2:51 am 02:51 Mostly Clear 64 17.8 35 1.7 34 34 ESE 9 15 29.81 1010 10 16 0.00 0.00
3:51 am 03:51 Clear 63 17.2 37 2.8 38 38 ESE 8 13 29.79 1009 10 16 0.00 0.00
4:51 am 04:51 Clear 61 16.1 39 3.9 44 44 ESE 8 13 29.78 1009 10 16 0.00 0.00
5:51 am 05:51 Clear 57 13.9 34 1.1 42 42 SSW 10 17 29.80 1009 10 16 0.00 0.00
6:51 am 06:51 Mostly Cloudy 57 13.9 35 1.7 44 44 Calm 29.87 1011 10 16 0.00 0.00
7:51 am 07:51 Cloudy 60 15.6 43 6.1 53 53 SE 7 11 29.85 1011 10 16 0.00 0.00
8:51 am 08:51 Cloudy with Light Rain 55 12.8 48 8.9 77 77 SE 16 26 29.90 1013 10 16 0.00 0.00
9:51 am 09:51 Cloudy 57 13.9 47 8.3 69 69 ESE 12 19 29.92 1013 10 16 0.00 0.00
10:51 am 10:51 Cloudy 56 13.3 47 8.3 72 72 SE 9 15 29.91 1013 10 16 0.00 0.00
11:51 am 11:51 Cloudy with Rain 53 11.7 50 10 89 89 ESE 10 17 29.93 1014 5 8 0.06 1.52
12:51 pm 12:51 Cloudy with Light Rain 54 12.2 51 10.6 90 90 ESE 9 15 29.92 1013 10 16 0.02 0.51
1:19 pm 13:19 Cloudy with Light Rain 54 12.2 51 10.6 90 90 SE 8 13 29.97 1015 10 16 0.00 0.00
1:46 pm 13:46 Cloudy 55 13 50 10 82 82 SSE 8 13 29.94 1014 10 16 0.00 0.00
1:51 pm 13:51 Cloudy 55 12.8 49 9.4 80 80 SE 9 15 29.91 1013 10 16 0.00 0.00
2:51 pm 14:51 Mostly Cloudy 58 14.4 49 9.4 72 72 S 10 17 29.89 1012 10 16 0.00 0.00
3:16 pm 15:16 Mostly Cloudy 57 14 48 9 72 72 S 9 15 29.92 1013 10 16 0.00 0.00
3:51 pm 15:51 Cloudy 57 13.9 50 10 78 78 S 13 20 29.91 1013 10 16 0.00 0.00
4:51 pm 16:51 Cloudy 56 13.3 50 10 81 81 SSE 15 24 29.93 1014 10 16 0.00 0.00
5:51 pm 17:51 Cloudy 54 12.2 50 10 87 87 SE 8 13 29.95 1014 10 16 0.00 0.00
6:51 pm 18:51 Clear 51 10.6 49 9.4 92 92 SSE 6 9 29.95 1014 10 16 0.00 0.00
7:51 pm 19:51 Clear 49 9.4 48 8.9 97 97 SSE 6 9 29.98 1015 10 16 0.00 0.00
8:51 pm 20:51 Clear 50 10 48 8.9 93 93 ESE 7 11 30.01 1016 10 16 0.00 0.00
9:51 pm 21:51 Mostly Clear 47 8.3 46 7.8 97 97 Calm 30.05 1018 10 16 0.00 0.00
10:51 pm 22:51 Clear 45 7.2 44 6.7 97 97 E 3 6 30.06 1018 10 16 0.00 0.00
11:51 pm 23:51 Clear 47 8.3 46 7.8 97 97 E 7 11 30.05 1018 10 16 0.00 0.00

Powered by AerisWeather